Temperature
12 13 13 13 13 13 13 13 13 13 14 15 15 15 15 16 16 16 16 16 16 16 16 16 16 16 16 16 16 16 15 15 15 15 15 15 15 15
12 12 12 13 13 13 13 13 13 13 13 14 14 15 15 15 15 15 15 15 15 15 16 16 16 16 16 15 15 15 15 15 15 15 15 15 15 15
12 12 12 12 13 13 13 13 13 13 13 14 14 14 14 14 15 15 15 15 15 15 15 15 15 15 15 15 15 15 15 15 15 15 15 15 15 14
12 12 12 12 12 12 13 13 13 13 13 13 14 14 14 14 14 15 15 15 15 15 15 15 15 15 15 15 15 15 15 15 15 15 14 14 14 14
12 12 12 12 12 12 12 13 13 13 13 13 13 14 14 14 14 14 14 14 14 15 15 15 15 15 15 15 15 15 15 15 14 14 14 14 14 14
12 12 12 12 12 12 12 12 13 13 13 13 13 13 13 13 14 14 14 14 14 14 14 14 14 14 14 14 14 14 14 14 14 14 14 14 14 14
12 12 12 12 12 12 12 12 13 13 13 13 13 13 13 13 13 13 13 13 13 14 14 14 14 14 14 14 14 14 14 14 14 14 14 14 14 14
12 12 12 12 12 12 12 12 12 13 13 13 13 13 13 13 13 13 13 13 13 13 13 14 14 14 14 14 14 14 14 14 14 14 14 14 13 13
12 12 12 12 12 12 12 12 12 12 12 13 13 13 13 13 13 13 13 13 13 13 13 13 13 13 14 14 14 14 14 13 13 13 13 13 13 13
12 12 12 12 12 12 12 12 12 12 12 12 12 12 12 12 13 13 12 12 12 13 12 13 13 13 13 13 13 13 13 13 13 13 13 13 13 13
12 12 12 12 12 12 12 12 12 12 12 12 12 12 12 12 12 12 12 12 12 12 12 12 13 13 13 13 13 13 13 13 13 13 13 13 12 12
12 12 12 12 12 12 12 12 12 12 12 12 12 12 12 12 12 12 12 12 12 12 12 12 12 12 12 13 13 13 13 13 12 12 12 12 12 12
12 12 12 12 12 12 12 12 12 12 12 12 12 12 12 12 12 12 12 12 12 12 12 12 12 12 12 12 12 12 12 12 12 12 12 12 12 12
12 12 12 12 12 12 12 12 12 12 12 12 12 12 12 12 12 12 12 12 12 12 12 12 12 12 12 12 12 12 12 12 12 12 12 12 11 11
12 12 12 12 12 12 11 11 11 11 11 11 11 11 11 11 11 11 11 11 12 12 12 12 11 11 11 11 11 11 11 11 11 11 11 11 11 11
12 12 12 11 11 11 11 11 11 11 11 11 11 11 11 11 11 11 11 11 11 12 11 11 11 11 11 11 11 11 11 11 11 11 11 11 11 11
12 12 12 11 11 11 11 11 11 11 11 11 11 11 11 11 11 11 11 11 11 11 11 11 11 11 11 11 11 11 11 11 11 11 11 11 11 11
11 11 11 11 11 11 11 11 11 10 10 10 10 10 10 10 10 10 10 10 10 11 11 11 10 10 10 10 10 10 11 11 11 10 10 10 11 11
11 11 11 10 10 10 10 10 10 10 10 10 10 10 10 10 10 10 10 10 10 10 10 10 10 10 10 10 11 11 10 10 10 10 10 10 10 11
10 10 10 10 10 9 10 10 9 9 9 9 9 9 9 9 9 9 9 9 9 10 10 10 10 10 10 10 10 10 10 10 10 10 10 10 10 10
9 9 9 9 9 9 9 9 9 9 9 9 9 9 9 9 9 9 9 9 9 9 9 10 10 9 9 9 9 10 10 10 10 10 10 9 9 9
8 8 8 8 8 8 8 8 8 8 8 8 8 8 8 8 8 8 8 8 8 8 9 9 9 9 9 9 9 9 10 10 10 9 9 9 9 9
7 7 7 7 7 7 7 7 7 7 7 7 7 7 7 7 8 8 8 8 8 8 8 8 9 9 9 9 9 9 9 9 9 9 9 9 9 9
Wind_Speed
2 2 2 2 2 2 2 3 3 2 2 2 2 1 2 4 6 7 8 11 13 13 14 14 14 14 15 15 16 15 15 15 15 14 13 12 12 12
2 2 2 2 2 2 2 2 3 3 2 2 2 1 1 3 5 7 8 10 12 13 14 14 14 14 14 15 15 15 14 14 14 14 14 14 13 12
1 2 2 2 2 2 2 2 3 3 3 2 1 1 2 3 2 4 6 7 8 11 12 13 13 14 14 15 15 15 14 14 13 14 14 14 14 14
2 2 2 2 2 2 2 2 2 3 3 3 2 1 2 3 3 3 4 5 6 9 11 11 12 13 14 14 15 15 15 14 14 14 14 14 14 14
1 2 2 2 2 2 2 2 2 2 3 3 2 2 2 2 2 2 3 2 4 7 9 11 12 12 13 13 14 14 15 15 15 14 14 14 14 15
1 1 1 2 3 3 2 3 3 3 2 2 2 2 2 2 2 2 2 2 3 3 5 7 9 11 12 12 13 14 14 15 15 15 15 14 15 15
2 1 1 1 2 2 2 2 3 3 2 2 2 2 2 2 2 2 3 2 2 2 3 3 4 5 7 10 12 13 14 15 15 14 14 14 15 15
2 3 2 2 2 2 2 2 3 4 4 3 2 3 4 3 2 3 2 2 2 2 3 3 3 4 5 7 10 13 14 15 15 15 15 15 15 15
2 2 3 3 3 2 2 2 2 3 5 5 5 5 4 5 4 4 4 4 3 2 3 3 3 4 4 7 11 13 14 15 15 15 15 15 16 16
2 2 2 3 3 2 2 2 2 3 4 4 5 6 5 5 5 5 4 2 1 2 3 3 3 3 3 4 9 12 13 14 14 15 15 15 16 15
3 2 2 2 4 3 2 2 3 3 3 4 4 5 6 6 5 3 3 3 2 3 3 3 2 2 2 3 5 9 12 13 13 14 14 14 14 13
3 3 4 3 4 4 1 2 3 4 3 3 3 3 3 4 6 6 5 5 3 3 4 4 3 2 2 2 3 5 7 10 12 14 14 14 13 10
2 3 4 6 6 5 3 2 4 4 3 2 2 2 2 2 3 4 5 5 5 4 4 5 3 3 3 1 2 3 4 4 6 8 12 13 14 12
2 3 3 6 7 6 4 4 5 3 2 2 2 2 2 2 2 3 4 4 4 4 5 5 4 5 4 3 2 2 3 5 5 5 6 9 12 14
1 3 5 6 6 5 6 6 5 2 2 2 2 2 2 2 2 1 2 2 2 3 5 5 4 4 4 4 3 3 3 4 6 6 6 7 7 7
2 4 6 7 5 5 5 5 4 2 1 2 2 2 2 1 2 1 2 1 2 2 3 5 6 6 5 5 4 4 5 4 5 6 6 6 7 9
2 3 4 5 6 5 5 5 4 4 3 3 2 3 2 2 2 1 1 1 2 2 2 2 3 4 5 5 5 6 6 5 5 6 6 7 7 8
4 4 4 4 4 5 5 5 4 4 4 4 3 3 3 3 3 2 2 2 3 3 3 3 2 2 2 4 8 7 6 6 6 7 6 7 7 7
5 4 4 4 4 4 4 4 4 4 4 4 4 4 4 3 3 3 3 3 4 4 4 3 4 4 5 6 5 9 7 5 5 6 7 7 7 7
4 4 4 4 4 4 4 4 4 5 4 4 4 4 4 4 4 4 4 4 5 5 4 4 5 7 7 6 4 4 10 8 7 7 6 5 3 3
4 4 4 4 4 4 4 4 4 4 5 5 5 5 5 4 5 5 5 6 6 5 6 7 7 8 5 3 4 4 5 10 11 7 6 5 4 3
4 4 4 5 5 5 5 5 5 5 5 5 5 5 5 5 6 7 6 6 6 6 7 7 4 3 5 7 9 8 6 5 8 11 11 9 6 7
3 3 3 4 4 4 4 5 5 5 5 6 6 6 6 6 6 7 7 7 7 8 7 6 4 4 6 8 9 8 8 7 5 5 6 11 14 12
Wind_Direction
225 219 219 231 216 210 197 185 182 216 247 246 252 230 195 200 207 204 209 209 211 212 211 210 210 209 208 210 209 210 212 213 213 210 207 208 209 211
228 227 230 226 224 211 201 199 197 198 231 253 249 271 220 218 211 205 211 208 210 213 213 210 209 208 208 207 206 206 209 212 214 213 210 210 211 213
254 234 246 230 216 213 194 189 199 196 228 262 256 253 227 225 217 206 211 206 208 211 211 210 209 209 209 208 206 206 207 210 213 214 212 210 211 214
271 250 252 238 228 217 196 197 200 201 210 243 258 241 235 219 212 208 208 204 201 205 204 204 205 207 208 208 207 206 207 209 211 213 213 212 213 214
258 243 248 225 233 224 209 210 214 212 208 222 246 240 242 220 202 210 202 202 200 204 203 206 207 207 208 209 209 210 209 209 210 211 212 213 213 213
319 275 251 231 229 220 216 216 211 208 211 219 229 237 241 235 196 206 215 207 205 196 198 202 205 206 208 209 212 213 212 211 210 209 210 211 212 210
347 333 300 290 251 221 216 211 205 206 204 212 221 225 230 214 209 202 215 221 224 199 194 203 199 205 208 212 217 216 213 211 209 209 210 212 210 209
337 335 329 335 327 325 296 240 214 206 207 207 219 221 231 222 211 202 201 208 239 198 191 217 195 206 209 210 214 215 214 211 209 209 210 210 209 208
335 337 344 347 350 325 306 304 279 251 225 208 216 225 220 212 197 205 209 210 221 200 180 219 207 219 215 211 209 213 213 212 210 210 210 210 209 208
344 324 321 324 332 330 321 316 305 288 261 239 227 231 228 217 207 208 208 202 219 209 183 208 206 219 216 215 214 213 212 211 210 210 210 210 210 210
340 339 327 314 324 337 334 317 314 309 292 262 253 247 241 230 206 184 186 198 229 222 195 195 198 205 221 225 219 213 212 211 211 208 206 204 204 205
335 336 338 333 329 339 331 307 306 305 312 318 312 300 263 233 212 204 200 204 209 220 199 183 183 173 219 232 218 212 213 215 213 211 207 204 199 199
324 327 327 337 340 339 333 291 285 297 301 298 300 301 289 247 227 216 210 207 212 226 192 175 181 182 189 209 227 214 207 208 210 213 208 203 199 196
296 308 320 337 344 345 344 329 322 323 314 315 310 298 288 276 254 234 224 223 224 226 197 182 190 190 185 199 223 212 211 210 205 208 206 201 203 206
291 329 344 353 356 359 1 357 355 358 343 331 312 294 278 275 277 265 245 221 223 225 203 201 200 196 198 208 207 202 211 217 207 207 205 205 207 203
5 7 13 18 19 5 1 2 2 349 334 313 307 301 299 288 272 259 248 233 237 250 217 207 204 200 213 219 214 219 212 211 205 206 207 210 210 208
40 33 28 21 19 13 6 359 356 359 355 337 325 324 320 311 299 288 257 246 238 247 251 222 209 214 219 212 224 229 223 223 216 206 205 218 221 215
71 46 29 19 12 4 359 354 354 353 344 337 331 321 317 312 306 296 273 260 258 254 248 230 200 207 226 239 222 228 225 224 216 204 203 214 227 220
68 46 27 11 1 355 352 348 344 338 336 339 336 329 322 315 307 297 284 271 264 260 253 230 214 216 239 256 237 213 216 217 205 206 211 214 224 219
49 38 20 7 360 354 351 348 343 345 349 346 341 335 329 320 310 298 287 279 277 271 261 239 227 226 233 247 246 230 212 212 211 218 215 214 228 229
32 24 15 6 360 353 347 345 345 346 347 345 340 335 330 322 312 304 295 284 277 274 269 261 248 234 236 228 244 245 230 216 212 210 200 195 204 204
27 20 14 10 5 359 355 355 356 357 355 350 341 333 326 317 308 303 299 295 285 275 272 274 264 226 219 232 245 248 244 229 224 222 211 198 191 202
18 15 10 7 6 1 1 3 2 357 351 344 338 332 328 321 313 306 299 294 292 288 284 281 268 243 240 240 247 249 244 235 219 215 229 228 227 229
Height
1476 1477 1478 1479 1480 1481 1482 1484 1486 1485 1486 1487 1489 1491 1493 1494 1496 1498 1501 1503 1506 1509 1511 1514 1516 1518 1520 1522 1525 1527 1529 1531 1533 1535 1536 1538 1539 1540
1474 1475 1476 1477 1478 1479 1480 1481 1482 1484 1484 1484 1486 1488 1489 1491 1493 1495 1497 1499 1502 1504 1507 1509 1512 1514 1516 1518 1520 1523 1525 1527 1528 1531 1532 1534 1535 1536
1472 1473 1474 1475 1475 1476 1477 1478 1479 1481 1481 1482 1484 1485 1486 1488 1490 1491 1493 1495 1497 1500 1502 1505 1507 1509 1512 1514 1516 1518 1521 1523 1524 1526 1528 1530 1531 1532
1471 1471 1471 1472 1473 1474 1475 1476 1477 1478 1479 1480 1480 1482 1483 1484 1486 1488 1489 1491 1493 1495 1498 1500 1502 1505 1507 1509 1511 1514 1516 1518 1520 1522 1523 1525 1527 1528
1469 1469 1470 1470 1471 1472 1473 1473 1474 1476 1477 1477 1478 1479 1480 1481 1482 1484 1485 1487 1489 1491 1493 1495 1497 1499 1502 1504 1507 1509 1511 1513 1515 1517 1519 1520 1522 1524
1468 1468 1468 1469 1469 1470 1471 1471 1472 1473 1474 1475 1476 1476 1477 1478 1479 1480 1481 1483 1484 1486 1488 1490 1492 1494 1497 1499 1502 1504 1506 1508 1510 1512 1514 1516 1517 1519
1467 1467 1467 1467 1468 1468 1469 1469 1470 1471 1471 1472 1473 1474 1474 1475 1476 1477 1478 1479 1480 1482 1484 1486 1488 1489 1491 1494 1496 1498 1500 1503 1505 1506 1508 1510 1512 1513
1467 1466 1466 1466 1467 1467 1467 1468 1468 1468 1469 1470 1470 1471 1472 1473 1473 1474 1475 1476 1477 1479 1480 1482 1483 1484 1486 1489 1490 1493 1495 1497 1499 1501 1503 1505 1506 1508
1467 1466 1466 1466 1466 1466 1466 1466 1466 1466 1467 1468 1468 1468 1469 1470 1470 1471 1472 1473 1473 1475 1476 1477 1479 1480 1482 1483 1486 1488 1489 1491 1493 1495 1497 1499 1501 1503
1467 1466 1466 1465 1465 1464 1464 1464 1464 1464 1464 1465 1465 1465 1466 1467 1468 1469 1469 1470 1470 1471 1473 1473 1474 1476 1477 1479 1480 1482 1484 1486 1487 1489 1491 1493 1495 1497
1468 1467 1466 1465 1464 1463 1463 1462 1462 1462 1462 1462 1462 1462 1463 1464 1464 1465 1466 1466 1467 1467 1469 1469 1470 1471 1472 1474 1475 1477 1478 1480 1482 1484 1485 1487 1489 1491
1467 1467 1465 1464 1463 1462 1462 1461 1460 1460 1459 1459 1459 1459 1460 1460 1461 1461 1462 1463 1463 1464 1465 1466 1466 1467 1468 1469 1470 1472 1473 1475 1476 1478 1480 1482 1484 1485
1467 1466 1465 1464 1463 1462 1461 1460 1459 1458 1457 1457 1457 1457 1457 1457 1458 1458 1459 1459 1460 1460 1462 1462 1463 1463 1464 1464 1465 1467 1468 1469 1471 1473 1474 1476 1478 1479
1466 1465 1464 1463 1462 1461 1460 1459 1458 1457 1456 1455 1455 1454 1454 1454 1454 1455 1455 1456 1456 1457 1458 1459 1459 1459 1460 1460 1461 1461 1463 1464 1465 1467 1468 1470 1472 1473
1465 1464 1463 1462 1461 1460 1459 1458 1456 1455 1454 1453 1453 1452 1452 1452 1452 1452 1452 1452 1453 1453 1454 1454 1455 1455 1456 1456 1456 1457 1458 1459 1460 1461 1463 1464 1466 1467
1463 1462 1461 1460 1459 1459 1458 1457 1455 1454 1453 1452 1451 1450 1450 1449 1449 1449 1449 1449 1449 1449 1450 1451 1451 1451 1451 1451 1452 1452 1453 1454 1455 1456 1457 1459 1460 1461
1462 1461 1460 1459 1458 1457 1456 1455 1454 1453 1452 1451 1450 1449 1448 1448 1447 1447 1446 1446 1446 1445 1446 1446 1447 1447 1447 1447 1447 1447 1447 1448 1449 1450 1451 1452 1454 1455
1461 1460 1459 1458 1456 1455 1454 1453 1452 1451 1450 1449 1448 1447 1446 1445 1445 1444 1443 1443 1442 1442 1442 1442 1442 1442 1442 1441 1442 1442 1442 1442 1443 1444 1445 1446 1447 1449
1459 1458 1457 1456 1455 1454 1453 1452 1451 1450 1448 1447 1446 1445 1444 1443 1442 1441 1440 1440 1439 1438 1438 1438 1438 1437 1437 1436 1436 1437 1437 1437 1438 1438 1439 1440 1441 1443
1457 1456 1455 1455 1454 1453 1451 1450 1449 1448 1446 1445 1444 1443 1441 1440 1439 1438 1437 1436 1435 1434 1433 1433 1433 1433 1432 1432 1431 1431 1432 1432 1432 1432 1433 1434 1435 1437
1455 1455 1454 1453 1452 1451 1449 1448 1447 1445 1444 1442 1441 1440 1438 1437 1435 1434 1433 1432 1431 1429 1428 1428 1428 1427 1426 1426 1425 1424 1425 1426 1426 1427 1427 1428 1428 1429
1454 1453 1452 1451 1450 1448 1447 1445 1444 1442 1441 1439 1438 1436 1435 1433 1431 1430 1429 1427 1426 1424 1423 1422 1421 1420 1420 1419 1417 1418 1418 1419 1420 1420 1421 1422 1422 1422
1453 1452 1450 1449 1448 1446 1444 1443 1441 1439 1437 1435 1434 1432 1430 1429 1427 1425 1424 1422 1420 1419 1417 1416 1415 1414 1413 1412 1411 1411 1411 1412 1412 1413 1414 1415 1416 1418